Regional Weather Roundup
Issued by NWS Midland/Odessa, TX

Skip options and go directly to product.
Home | Oldest Version | Next Version | Current Version | All | Text Only | Save Text | Print | Product List | Glossary On

Skip product version selection by date and time.   
047
ASUS44 KMAF 041801
RWRMAF
MIDLAND AREA WEATHER ROUNDUP
NATIONAL WEATHER SERVICE MIDLAND TX
1200 PM CST SUN DEC 04 2016

...IN SOUTHWEST TEXAS AND SOUTHEAST NEW MEXICO...

CITY           SKY/WX    TMP DP  RH WIND       PRES   REMARKS
ALPINE         CLOUDY    39  38  98 N9        30.15S WCI  33
ANDREWS        CLOUDY    42  41  96 NE10      30.14F WCI  36
ARTESIA        MOSUNNY   43  36  75 N13       30.17S WCI  36
BIG SPRING     CLOUDY    45  40  83 N14       30.14F WCI  38
CARLSBAD       CLOUDY    40  36  86 N13       30.16F WCI  32
DRYDEN           N/A     48  42  80 N13G21    30.06F
FORT STOCKTON  LGT RAIN  42  42 100 N12       30.12F FOG     WCI  36
GUAD PASS      SUNNY     43  34  70 E22       30.10S WCI  34
HOBBS          CLOUDY    37  37 100 N8        30.15F WCI  31
MARFA          CLOUDY    40  37  89 NE16      30.08S WCI  31
MIDLAND AIRPK  CLOUDY    45  40  82 NE9       30.14S
MIDLAND INTL   CLOUDY    45  39  79 N12       30.12F WCI  39
ODESSA         CLOUDY    45  39  79 NE12      30.13F WCI  39
PECOS          CLOUDY    40  38  92 NW13      30.16S FOG     WCI  33
PRESIDIO       CLOUDY    46  45  93 CALM      30.05F
SEMINOLE       CLOUDY    43  37  80 N8        30.14F WCI  38
SNYDER         CLOUDY    44  39  82 N12       30.13F WCI  39
WINK           CLOUDY    45  42  89 N13       30.13F WCI  39
$$
...OTHER STATIONS IN TEXAS...

CITY           SKY/WX    TMP DP  RH WIND       PRES   REMARKS
ABILENE        CLOUDY    46  42  86 N13       30.11R
AMARILLO       SUNNY     45  31  58 N8        30.12F
AUSTIN         RAIN      52  50  93 N15       30.02F FOG
BROWNSVILLE    CLOUDY    60  59  96 NW12      29.87F
CORPUS CHRISTI LGT RAIN  54  53  97 N18G30    29.91F
DALLAS FTW     CLOUDY    51  44  77 N12       30.08R
DEL RIO        CLOUDY    52  48  86 N8        30.04F
EL PASO        SUNNY     49  26  41 N13       30.10F
HOUSTON INT    LGT RAIN  52  50  93 N7        30.02R FOG
LUBBOCK        MOSUNNY   48  35  60 NE9       30.12S
SAN ANGELO     CLOUDY    47  42  83 NE14      30.10S
SAN ANTONIO    LGT RAIN  52  49  89 N9        30.02F
WACO           CLOUDY    51  48  89 N9        30.09R
WICHITA FALLS  NOT AVBL
$$
...OTHER LOCATIONS IN NEW MEXICO...

CITY           SKY/WX    TMP DP  RH WIND       PRES   REMARKS
ALAMAGORDO     NOT AVBL
ALBUQUERQUE    SUNNY     39  13  34 VRB3      30.18F
CANNON AFB     SUNNY     41  33  72 VRB6      30.12F WCI  37
CLOVIS         SUNNY     45  25  45 NE8       30.12F
HOLLOMAN AFB   SUNNY     48  29  46 N6        30.14F
ROSWELL        SUNNY     44  30  57 NE9       30.16F WCI  39
RUIDOSO        SUNNY     37  18  44 CALM      30.15F
SANTA FE       SUNNY     36  12  37 N17       30.15S WCI  26
TRUTH OR CONSE SUNNY     46  16  30 N7        30.14F
TUCUMCARI      SUNNY     42  26  53 CALM      30.14F
$$

  • National Weather Service
  • Southern Region Headquarters
  • 819 Taylor Street, Room 10A06
  • Fort Worth, TX 76102
  • Page Author: NWS Fort Worth
  • Web Master: SR-SRH.Webmaster@noaa.gov
  •  
  • Page last modified: 30-Sep-2016 6:36 PM UTC
USA.gov is the U.S. government's official web portal to all federal, state and local government web resources and services.